Location: The Stocker AstroScience Center
(25.7579°N, 80.3725°W)
Time: 22:16:22
(UTC-04:00)

ISS - All Passes

Search period start: 27 August 2016 00:00
Search period end: 06 September 2016 00:00
Orbit: 402 x 406 km, 51.6° (Epoch: 27 August)

Date Brightness Start Highest point End Pass type
(mag) Time Alt. Az. Time Alt. Az. Time Alt. Az.
27 Aug - 07:41:00 10° S 07:43:15 17° SE 07:45:29 10° E daylight
27 Aug - 09:16:52 10° W 09:19:33 23° NW 09:22:13 10° NNE daylight
27 Aug - 17:26:29 10° NW 17:29:46 82° SW 17:33:01 10° SE daylight
28 Aug - 08:23:53 10° SW 08:27:04 52° NW 08:30:16 10° NNE daylight
28 Aug - 16:34:16 10° NNW 16:37:21 38° NE 16:40:25 10° ESE daylight
29 Aug - 07:31:28 10° SSW 07:34:40 58° SE 07:37:54 10° NE daylight
29 Aug - 15:42:29 10° N 15:44:50 18° NE 15:47:09 10° E daylight
29 Aug - 17:18:34 10° WNW 17:21:13 23° SW 17:23:52 10° S daylight
30 Aug - 06:39:43 10° S 06:42:21 23° SE 06:45:01 10° ENE visible
30 Aug - 08:16:24 10° W 08:18:44 18° NW 08:21:05 10° N daylight
30 Aug - 16:25:40 10° NW 16:28:54 58° SW 16:32:06 10° SSE daylight
31 Aug - 07:23:09 10° WSW 07:26:13 38° NW 07:29:18 10° NNE daylight
31 Aug - 15:33:17 10° NNW 15:36:29 51° NE 15:39:40 10° SE daylight
01 Sep - 06:30:31 10° SW 06:33:47 82° SE 06:37:03 10° NE visible
01 Sep - 14:41:19 10° NNW 14:43:59 23° NE 14:46:38 10° E daylight
01 Sep - 16:18:02 10° W 16:20:17 17° SW 16:22:32 10° S daylight
02 Sep - 05:38:30 10° S 05:41:25 30° SE 05:44:20 10° ENE visible
02 Sep - 07:16:00 10° WNW 07:17:54 14° NW 07:19:48 10° N daylight
02 Sep - 13:50:11 10° NNE 13:51:22 12° NE 13:52:34 10° ENE daylight
02 Sep - 15:24:51 10° WNW 15:27:57 41° SW 15:31:03 10° SSE daylight
03 Sep - 04:47:29 10° SSE 04:49:07 13° SE 04:50:43 10° E visible
03 Sep - 06:22:25 10° WSW 06:25:19 29° NW 06:28:14 10° NNE visible
03 Sep - 14:32:18 10° NW 14:35:33 72° NE 14:38:48 10° SE daylight
04 Sep - 05:29:35 10° SW 05:32:50 72° NW 05:36:05 10° NE visible
04 Sep - 13:40:09 10° NNW 13:43:04 29° NE 13:45:58 10° ESE daylight
04 Sep - 15:17:38 10° W 15:19:17 13° SW 15:20:54 10° SSW daylight
05 Sep - 04:37:20 10° SSW 04:40:25 41° SE 04:43:31 10° ENE visible
05 Sep - 06:15:47 10° WNW 06:17:00 12° NW 06:18:14 10° NNW visible
05 Sep - 12:48:35 10° N 12:50:28 14° NE 12:52:20 10° ENE daylight
05 Sep - 14:24:01 10° WNW 14:26:57 30° SW 14:29:52 10° SSE daylight
